Torna al catalogo

STARLINK-34339

AttivoComunicazioniSSO
NORAD 64160·PAYLOAD·🇺🇸 United States

Lanciato May 27, 2025 da Vandenberg Space Force Base

Loading…

Prossimi Passaggi (prossime 24 ore)

TLE

AggiornatoSource: CelesTrak SupGP

Epoca: Sep 14, 2026, 21:14 UTC

1 64160C 25112Q   26257.88520833  .00001117  00000+0  34697-4 0  2576
2 64160  97.2833 305.0656 0001551  91.9671 117.3726 15.33407561    14

Traccia STARLINK-34339 in tempo reale con AllMySat

Download on the App Store